Shirley, NY

2:53 AM EDT on October 17, 2017 (GMT -0400)
Brookhaven

Weather History for KHWV - February, 2014

Change the Weather History Date:

Tuesday, February 4, 2014

  Actual Average (KISP) Record (KISP)
Temperature  
Mean Temperature 27 °F -  
Max Temperature 35 °F 38 °F 66 °F (1991)
Min Temperature 19 °F 23 °F 10 °F (1996)
Degree Days  
Heating Degree Days 38    
Moisture  
Dew Point 23 °F    
Average Humidity 83    
Maximum Humidity 100    
Minimum Humidity 64    
Precipitation  
Precipitation 0.00 in - - ()
Sea Level Pressure  
Sea Level Pressure 30.40 in    
Wind  
Wind Speed 3 mph (North)    
Max Wind Speed 7 mph    
Max Gust Speed -    
Visibility 8 miles    
Events      
Averages and records for this station are not official NWS values.
T = Trace of Precipitation, MM = Missing Value Source: NWS Daily Summary

Daily Weather History Graph

Daily Weather History Graph

Search for Another Location

Airport or City:

Trip Planner

Search our weather history database for the weather conditions in past years. The results will help you decide how hot, cold, wet, or windy it might be!

Date:

Astronomy

Feb. 04, 2014 Rise Set
Actual Time 6:58 AM EST 5:12 PM EST
Civil Twilight 6:29 AM EST 5:41 PM EST
Nautical Twilight 5:57 AM EST 6:14 PM EST
Astronomical Twilight 5:25 AM EST 6:46 PM EST
Moon 9:32 AM EST (2/4) 11:06 PM EST (2/4)
Length of Visible Light 11h 11m
Length of Day
10h 14m
Waxing Crescent, 29% of the Moon is Illuminated
Feb 4
Waxing Crescent
Feb 6
First Quarter
Feb 14
Full
Feb 22
Last Quarter
Mar 1
New

Hourly Weather History & Observations

Time (EST) Temp. Windchill Dew Point Humidity Pressure Visibility Wind Dir Wind Speed Gust Speed Precip Events Conditions
12:56 AM 26.1 °F 21.9 °F 23.0 °F 88% 30.31 in 8.0 mi North 3.5 mph - N/A   Clear
1:56 AM 24.1 °F - 21.0 °F 88% 30.33 in 6.0 mi Calm Calm - N/A   Clear
2:56 AM 25.0 °F 17.1 °F 21.9 °F 88% 30.35 in 10.0 mi NNW 6.9 mph - N/A   Clear
3:56 AM 24.1 °F 17.0 °F 21.0 °F 88% 30.36 in 10.0 mi North 5.8 mph - N/A   Clear
4:56 AM 23.0 °F 14.7 °F 19.9 °F 88% 30.37 in 10.0 mi North 6.9 mph - N/A   Clear
5:56 AM 19.9 °F - 19.0 °F 96% 30.40 in 9.0 mi Calm Calm - N/A   Clear
6:53 AM 19.4 °F - 17.6 °F 93% 30.41 in 1.8 mi Calm Calm - N/A   Clear
6:54 AM 19.4 °F 14.3 °F 17.6 °F 93% 30.41 in 2.0 mi NNW 3.5 mph - N/A   Clear
6:56 AM 19.0 °F - 17.1 °F 92% 30.42 in 2.5 mi Calm Calm - N/A   Clear
7:05 AM 19.0 °F - 17.1 °F 92% 30.42 in 5.0 mi Calm Calm - N/A   Clear
7:56 AM 21.9 °F 17.2 °F 21.9 °F 100% 30.42 in 9.0 mi North 3.5 mph - N/A   Clear
8:56 AM 27.0 °F 20.5 °F 24.1 °F 89% 30.46 in 10.0 mi North 5.8 mph - N/A   Clear
9:56 AM 30.0 °F 26.5 °F 26.1 °F 85% 30.48 in 10.0 mi Variable 3.5 mph - N/A   Clear
10:56 AM 32.0 °F 26.4 °F 26.1 °F 79% 30.48 in 10.0 mi Variable 5.8 mph - N/A   Clear
11:56 AM 33.1 °F 27.7 °F 25.0 °F 72% 30.45 in 10.0 mi North 5.8 mph - N/A   Clear
12:56 PM 33.1 °F 27.7 °F 25.0 °F 72% 30.41 in 10.0 mi North 5.8 mph - N/A   Clear
1:56 PM 34.0 °F 31.0 °F 25.0 °F 70% 30.42 in 10.0 mi Variable 3.5 mph - N/A   Clear
2:56 PM 34.0 °F - 24.1 °F 67% 30.43 in 10.0 mi Calm Calm - N/A   Partly Cloudy
3:11 PM 34.0 °F - 24.1 °F 67% 30.42 in 10.0 mi Calm Calm - N/A   Mostly Cloudy
3:35 PM 35.1 °F - 25.0 °F 67% 30.40 in 10.0 mi Calm Calm - N/A   Scattered Clouds
3:56 PM 34.0 °F - 23.0 °F 64% 30.40 in 10.0 mi Calm Calm - N/A   Clear
4:47 PM 32.0 °F 26.4 °F 23.0 °F 69% 30.39 in 10.0 mi SSE 5.8 mph - N/A   Mostly Cloudy
4:56 PM 30.9 °F 25.2 °F 23.0 °F 72% 30.40 in 10.0 mi SSE 5.8 mph - N/A   Overcast
5:40 PM 30.0 °F - 24.1 °F 79% 30.41 in 10.0 mi Calm Calm - N/A   Scattered Clouds
5:56 PM 30.0 °F - 24.1 °F 79% 30.42 in 10.0 mi Calm Calm - N/A   Scattered Clouds
6:56 PM 27.0 °F - 21.9 °F 81% 30.41 in 4.0 mi Calm Calm - N/A   Haze
7:56 PM 27.0 °F - 24.1 °F 89% 30.39 in 5.0 mi Calm Calm - N/A   Partly Cloudy
8:27 PM 28.0 °F - 25.0 °F 88% 30.39 in 9.0 mi Calm Calm - N/A   Mostly Cloudy
8:56 PM 27.0 °F - 26.1 °F 96% 30.40 in 9.0 mi Calm Calm - N/A   Overcast
9:56 PM 28.9 °F 25.2 °F 27.0 °F 92% 30.36 in 6.0 mi East 3.5 mph - N/A   Overcast
10:56 PM 30.0 °F - 26.1 °F 85% 30.35 in 10.0 mi Calm Calm - N/A   Overcast
11:56 PM 28.9 °F 25.2 °F 26.1 °F 89% 30.30 in 8.0 mi ENE 3.5 mph - N/A   Overcast